"Time","Value","Approval","myLocation"
"2023-05-06 00:00",55.2971168667308,"Approved","OW372"
"2023-05-06 01:00",55.3010982761538,"Approved","OW372"
"2023-05-06 02:00",55.3011576955769,"Approved","OW372"
"2023-05-06 03:00",55.302171065,"Approved","OW372"
"2023-05-06 04:00",55.2968524744231,"Approved","OW372"
"2023-05-06 05:00",55.2974278838462,"Approved","OW372"
"2023-05-06 06:00",55.3004732132692,"Approved","OW372"
"2023-05-06 07:00",55.3047165426923,"Approved","OW372"
"2023-05-06 08:00",55.3097099321154,"Approved","OW372"
"2023-05-06 09:00",55.3212372815385,"Approved","OW372"
"2023-05-06 10:00",55.3320266809615,"Approved","OW372"
"2023-05-06 11:00",55.3465280603846,"Approved","OW372"
"2023-05-06 12:00",55.3554334298077,"Approved","OW372"
"2023-05-06 13:00",55.3615467992308,"Approved","OW372"
"2023-05-06 14:00",55.3617641586538,"Approved","OW372"
"2023-05-06 15:00",55.3557455680769,"Approved","OW372"
"2023-05-06 16:00",55.3489309675,"Approved","OW372"
"2023-05-06 17:00",55.3396503269231,"Approved","OW372"
"2023-05-06 18:00",55.3281576963462,"Approved","OW372"
"2023-05-06 19:00",55.3227970357692,"Approved","OW372"
"2023-05-06 20:00",55.3182443651923,"Approved","OW372"
"2023-05-06 21:00",55.3179337546154,"Approved","OW372"
"2023-05-06 22:00",55.3214491240385,"Approved","OW372"
"2023-05-06 23:00",55.3264684834615,"Approved","OW372"
"2023-05-07 00:00",55.3325918328846,"Approved","OW372"
"2023-05-07 01:00",55.3365092023077,"Approved","OW372"
"2023-05-07 02:00",55.3380145717308,"Approved","OW372"
"2023-05-07 03:00",55.3381439211539,"Approved","OW372"
"2023-05-07 04:00",55.3373493005769,"Approved","OW372"
"2023-05-07 05:00",55.33749463,"Approved","OW372"
"2023-05-07 06:00",55.3398659294231,"Approved","OW372"
"2023-05-07 07:00",55.3430092688462,"Approved","OW372"
"2023-05-07 08:00",55.3528386082692,"Approved","OW372"
"2023-05-07 09:00",55.3646679576923,"Approved","OW372"
"2023-05-07 10:00",55.3750553571154,"Approved","OW372"
"2023-05-07 11:00",55.3870427565385,"Approved","OW372"
"2023-05-07 12:00",55.4005641159615,"Approved","OW372"
"2023-05-07 13:00",55.4071714853846,"Approved","OW372"
"2023-05-07 14:00",55.4105688648077,"Approved","OW372"
"2023-05-07 15:00",55.4118322942308,"Approved","OW372"
"2023-05-07 16:00",55.4053817336538,"Approved","OW372"
"2023-05-07 17:00",55.3969291730769,"Approved","OW372"
"2023-05-07 18:00",55.3857746225,"Approved","OW372"
"2023-05-07 19:00",55.3755440319231,"Approved","OW372"
"2023-05-07 20:00",55.3703534013462,"Approved","OW372"
"2023-05-07 21:00",55.3665268207692,"Approved","OW372"
"2023-05-07 22:00",55.3672022301923,"Approved","OW372"
"2023-05-07 23:00",55.3689616596154,"Approved","OW372"
"2023-05-08 00:00",55.3735330690385,"Approved","OW372"
"2023-05-08 01:00",55.3769865084615,"Approved","OW372"
"2023-05-08 02:00",55.3788379378846,"Approved","OW372"
"2023-05-08 03:00",55.3811113573077,"Approved","OW372"
"2023-05-08 04:00",55.3797667867308,"Approved","OW372"
"2023-05-08 05:00",55.3812901461539,"Approved","OW372"
"2023-05-08 06:00",55.3805234855769,"Approved","OW372"
"2023-05-08 07:00",55.383568815,"Approved","OW372"
"2023-05-08 08:00",55.3874462244231,"Approved","OW372"
"2023-05-08 09:00",55.3918637038462,"Approved","OW372"
"2023-05-08 10:00",55.4026351132692,"Approved","OW372"
"2023-05-08 11:00",55.4157364926923,"Approved","OW372"
"2023-05-08 12:00",55.4284999221154,"Approved","OW372"
"2023-05-08 13:00",55.4383413615385,"Approved","OW372"
"2023-05-08 14:00",55.4430027909615,"Approved","OW372"
"2023-05-08 15:00",55.4432041703846,"Approved","OW372"
"2023-05-08 16:00",55.4419995598077,"Approved","OW372"
"2023-05-08 17:00",55.4361769692308,"Approved","OW372"
"2023-05-08 18:00",55.4295763486538,"Approved","OW372"
"2023-05-08 19:00",55.4219136880769,"Approved","OW372"
"2023-05-08 20:00",55.4141769975,"Approved","OW372"
"2023-05-08 21:00",55.4081343169231,"Approved","OW372"
"2023-05-08 22:00",55.4049476863462,"Approved","OW372"
"2023-05-08 23:00",55.4057730357692,"Approved","OW372"
"2023-05-09 00:00",55.4082103751923,"Approved","OW372"
"2023-05-09 01:00",55.4130156346154,"Approved","OW372"
"2023-05-09 02:00",55.4131649640385,"Approved","OW372"
"2023-05-09 03:00",55.4159382634615,"Approved","OW372"
"2023-05-09 04:00",55.4195215528846,"Approved","OW372"
"2023-05-09 05:00",55.4224968423077,"Approved","OW372"
"2023-05-09 06:00",55.4240841317308,"Approved","OW372"
"2023-05-09 07:00",55.4248494411538,"Approved","OW372"
"2023-05-09 08:00",55.4313628005769,"Approved","OW372"
"2023-05-09 09:00",55.43837417,"Approved","OW372"
"2023-05-09 10:00",55.4496274894231,"Approved","OW372"
"2023-05-09 11:00",55.4607328688462,"Approved","OW372"
"2023-05-09 12:00",55.4723743182692,"Approved","OW372"
"2023-05-09 13:00",55.4834277576923,"Approved","OW372"
"2023-05-09 14:00",55.4921612071154,"Approved","OW372"
"2023-05-09 15:00",55.4971766865385,"Approved","OW372"
"2023-05-09 16:00",55.4975241259615,"Approved","OW372"
"2023-05-09 17:00",55.4968115253846,"Approved","OW372"
"2023-05-09 18:00",55.4922189048077,"Approved","OW372"
"2023-05-09 19:00",55.4834362642308,"Approved","OW372"
"2023-05-09 20:00",55.4753756036538,"Approved","OW372"
"2023-05-09 21:00",55.4668669930769,"Approved","OW372"
"2023-05-09 22:00",55.4632404025,"Approved","OW372"
"2023-05-09 23:00",55.4621258019231,"Approved","OW372"
"2023-05-10 00:00",55.4621932213462,"Approved","OW372"
"2023-05-10 01:00",55.4636486507692,"Approved","OW372"
"2023-05-10 02:00",55.4685380501923,"Approved","OW372"
"2023-05-10 03:00",55.4703394296154,"Approved","OW372"
"2023-05-10 04:00",55.4730968590385,"Approved","OW372"
"2023-05-10 05:00",55.4766222084615,"Approved","OW372"
"2023-05-10 06:00",55.4764515578846,"Approved","OW372"
"2023-05-10 07:00",55.4780609273077,"Approved","OW372"
"2023-05-10 08:00",55.4785503267308,"Approved","OW372"
"2023-05-10 09:00",55.4830357261539,"Approved","OW372"
"2023-05-10 10:00",55.4887111355769,"Approved","OW372"
"2023-05-10 11:00",55.495954575,"Approved","OW372"
"2023-05-10 12:00",55.5074140044231,"Approved","OW372"
"2023-05-10 13:00",55.5168155038462,"Approved","OW372"
"2023-05-10 14:00",55.5265469632692,"Approved","OW372"
"2023-05-10 15:00",55.5345804226923,"Approved","OW372"
"2023-05-10 16:00",55.5389198721154,"Approved","OW372"
"2023-05-10 17:00",55.5387653115385,"Approved","OW372"
"2023-05-10 18:00",55.5346706909615,"Approved","OW372"
"2023-05-10 19:00",55.5299020303846,"Approved","OW372"
"2023-05-10 20:00",55.5241032998077,"Approved","OW372"
"2023-05-10 21:00",55.5141406392308,"Approved","OW372"
"2023-05-10 22:00",55.5102819786538,"Approved","OW372"
"2023-05-10 23:00",55.5054113280769,"Approved","OW372"
"2023-05-11 00:00",55.5036486675,"Approved","OW372"
"2023-05-11 01:00",55.5059979869231,"Approved","OW372"
"2023-05-11 02:00",55.5087493163462,"Approved","OW372"
"2023-05-11 03:00",55.5113886557692,"Approved","OW372"
"2023-05-11 04:00",55.5155419751923,"Approved","OW372"
"2023-05-11 05:00",55.5198893046154,"Approved","OW372"
"2023-05-11 06:00",55.5224105440385,"Approved","OW372"
"2023-05-11 07:00",55.5270058234615,"Approved","OW372"
"2023-05-11 08:00",55.5298831128846,"Approved","OW372"
"2023-05-11 09:00",55.5326304423077,"Approved","OW372"
"2023-05-11 10:00",55.5349198317308,"Approved","OW372"
"2023-05-11 11:00",55.5413072311539,"Approved","OW372"
"2023-05-11 12:00",55.5467726505769,"Approved","OW372"
"2023-05-11 13:00",55.55570811,"Approved","OW372"
"2023-05-11 14:00",55.5649215894231,"Approved","OW372"
"2023-05-11 15:00",55.5736490488462,"Approved","OW372"
"2023-05-11 16:00",55.5807785182692,"Approved","OW372"
"2023-05-11 17:00",55.5832259576923,"Approved","OW372"
"2023-05-11 18:00",55.5840853871154,"Approved","OW372"
"2023-05-11 19:00",55.5827947565385,"Approved","OW372"
"2023-05-11 20:00",55.5782560659615,"Approved","OW372"
"2023-05-11 21:00",55.5729053953846,"Approved","OW372"
"2023-05-11 22:00",55.5661547148077,"Approved","OW372"
"2023-05-11 23:00",55.5612980542308,"Approved","OW372"
"2023-05-12 00:00",55.5597873336538,"Approved","OW372"
"2023-05-12 01:00",55.5578746130769,"Approved","OW372"
"2023-05-12 02:00",55.5583919825,"Approved","OW372"
"2023-05-12 03:00",55.5605293219231,"Approved","OW372"
"2023-05-12 04:00",55.5657746513462,"Approved","OW372"
"2023-05-12 05:00",55.5721399507692,"Approved","OW372"
"2023-05-12 06:00",55.5728192501923,"Approved","OW372"
"2023-05-12 07:00",55.5781085296154,"Approved","OW372"
"2023-05-12 08:00",55.5794958090385,"Approved","OW372"
"2023-05-12 09:00",55.5823191684615,"Approved","OW372"
"2023-05-12 10:00",55.5843205478846,"Approved","OW372"
"2023-05-12 11:00",55.5864179273077,"Approved","OW372"
"2023-05-12 12:00",55.5889613767308,"Approved","OW372"
"2023-05-12 13:00",55.5953108161538,"Approved","OW372"
"2023-05-12 14:00",55.6007262955769,"Approved","OW372"
"2023-05-12 15:00",55.607937775,"Approved","OW372"
"2023-05-12 16:00",55.6162792244231,"Approved","OW372"
"2023-05-12 17:00",55.6218366538462,"Approved","OW372"
"2023-05-12 18:00",55.6270080732692,"Approved","OW372"
"2023-05-12 19:00",55.6306374226923,"Approved","OW372"
"2023-05-12 20:00",55.6310247021154,"Approved","OW372"
"2023-05-12 21:00",55.6267740315385,"Approved","OW372"
"2023-05-12 22:00",55.6196913909615,"Approved","OW372"
"2023-05-12 23:00",55.6150207403846,"Approved","OW372"
"2023-05-13 00:00",55.6106980298077,"Approved","OW372"
"2023-05-13 01:00",55.6091153992308,"Approved","OW372"
"2023-05-13 02:00",55.6054227686538,"Approved","OW372"
"2023-05-13 03:00",55.6087321380769,"Approved","OW372"
"2023-05-13 04:00",55.6131814675,"Approved","OW372"
"2023-05-13 05:00",55.6215587569231,"Approved","OW372"
"2023-05-13 06:00",55.6310800063462,"Approved","OW372"
"2023-05-13 07:00",55.6354153457692,"Approved","OW372"
"2023-05-13 08:00",55.6385027451923,"Approved","OW372"
"2023-05-13 09:00",55.6425242146154,"Approved","OW372"
"2023-05-13 10:00",55.6406317040385,"Approved","OW372"
"2023-05-13 11:00",55.6451851334615,"Approved","OW372"
"2023-05-13 12:00",55.6430686528846,"Approved","OW372"
"2023-05-13 13:00",55.6457401723077,"Approved","OW372"
"2023-05-13 14:00",55.6475937217308,"Approved","OW372"
"2023-05-13 15:00",55.6511392811538,"Approved","OW372"
"2023-05-13 16:00",55.6570968305769,"Approved","OW372"
"2023-05-13 17:00",55.66195836,"Approved","OW372"
"2023-05-13 18:00",55.6658558594231,"Approved","OW372"
"2023-05-13 19:00",55.6699132888462,"Approved","OW372"
"2023-05-13 20:00",55.6719646182692,"Approved","OW372"
"2023-05-13 21:00",55.6710879676923,"Approved","OW372"
"2023-05-13 22:00",55.6679113271154,"Approved","OW372"
"2023-05-13 23:00",55.6610007265385,"Approved","OW372"
"2023-05-14 00:00",55.6526501559615,"Approved","OW372"
"2023-05-14 01:00",55.6488155853846,"Approved","OW372"
"2023-05-14 02:00",55.6451370548077,"Approved","OW372"
"2023-05-14 03:00",55.6430004742308,"Approved","OW372"
"2023-05-14 04:00",55.6459678936538,"Approved","OW372"
"2023-05-14 05:00",55.6545752730769,"Approved","OW372"
"2023-05-14 06:00",55.6628786425,"Approved","OW372"
"2023-05-14 07:00",55.6658220919231,"Approved","OW372"
"2023-05-14 08:00",55.6715315813462,"Approved","OW372"
"2023-05-14 09:00",55.6761390607692,"Approved","OW372"
"2023-05-14 10:00",55.6780565401923,"Approved","OW372"
"2023-05-14 11:00",55.6795720196154,"Approved","OW372"
"2023-05-14 12:00",55.6777755090385,"Approved","OW372"
"2023-05-14 13:00",55.6739390484615,"Approved","OW372"
"2023-05-14 14:00",55.6733045778846,"Approved","OW372"
"2023-05-14 15:00",55.6729721173077,"Approved","OW372"
"2023-05-14 16:00",55.6750875867308,"Approved","OW372"
"2023-05-14 17:00",55.6795990761538,"Approved","OW372"
"2023-05-14 18:00",55.6846405255769,"Approved","OW372"
"2023-05-14 19:00",55.690251895,"Approved","OW372"
"2023-05-14 20:00",55.6960211944231,"Approved","OW372"
"2023-05-14 21:00",55.6975645238462,"Approved","OW372"
"2023-05-14 22:00",55.6971619132692,"Approved","OW372"
"2023-05-14 23:00",55.6930153426923,"Approved","OW372"
"2023-05-15 00:00",55.6886967521154,"Approved","OW372"
"2023-05-15 01:00",55.6857741615385,"Approved","OW372"
"2023-05-15 02:00",55.6819255909615,"Approved","OW372"
"2023-05-15 03:00",55.6800870203846,"Approved","OW372"
"2023-05-15 04:00",55.6836063798077,"Approved","OW372"
"2023-05-15 05:00",55.6892656892308,"Approved","OW372"
"2023-05-15 06:00",55.6954750686538,"Approved","OW372"
"2023-05-15 07:00",55.7034724480769,"Approved","OW372"
"2023-05-15 08:00",55.7114758275,"Approved","OW372"
"2023-05-15 09:00",55.7175552369231,"Approved","OW372"
"2023-05-15 10:00",55.7221146663462,"Approved","OW372"
"2023-05-15 11:00",55.7225820757692,"Approved","OW372"
"2023-05-15 12:00",55.7217235251923,"Approved","OW372"
"2023-05-15 13:00",55.7163330146154,"Approved","OW372"
"2023-05-15 14:00",55.7128504840385,"Approved","OW372"
"2023-05-15 15:00",55.7104879434615,"Approved","OW372"
"2023-05-15 16:00",55.7103433728846,"Approved","OW372"
"2023-05-15 17:00",55.7130708423077,"Approved","OW372"
"2023-05-15 18:00",55.7168482417308,"Approved","OW372"
"2023-05-15 19:00",55.7235835911538,"Approved","OW372"
"2023-05-15 20:00",55.7305008405769,"Approved","OW372"
"2023-05-15 21:00",55.73493818,"Approved","OW372"
"2023-05-15 22:00",55.7431454394231,"Approved","OW372"
"2023-05-15 23:00",55.7536764388461,"Approved","OW372"
"2023-05-16 00:00",55.7503356482692,"Approved","OW372"
"2023-05-16 01:00",55.7422330276923,"Approved","OW372"
"2023-05-16 02:00",55.7385443971154,"Approved","OW372"
"2023-05-16 03:00",55.7391436665385,"Approved","OW372"
"2023-05-16 04:00",55.7417788959615,"Approved","OW372"
"2023-05-16 05:00",55.7500081353846,"Approved","OW372"
"2023-05-16 06:00",55.7539874248077,"Approved","OW372"
"2023-05-16 07:00",55.7626888042308,"Approved","OW372"
"2023-05-16 08:00",55.7764601036538,"Approved","OW372"
"2023-05-16 09:00",55.7872334030769,"Approved","OW372"
"2023-05-16 10:00",55.7934667425,"Approved","OW372"
"2023-05-16 11:00",55.7970181819231,"Approved","OW372"
"2023-05-16 12:00",55.7969576313462,"Approved","OW372"
"2023-05-16 13:00",55.7897191707692,"Approved","OW372"
"2023-05-16 14:00",55.7829407601923,"Approved","OW372"
"2023-05-16 15:00",55.7772763296154,"Approved","OW372"
"2023-05-16 16:00",55.7704498490385,"Approved","OW372"
"2023-05-16 17:00",55.7681453484615,"Approved","OW372"
"2023-05-16 18:00",55.7686907978846,"Approved","OW372"
"2023-05-16 19:00",55.7731321273077,"Approved","OW372"
"2023-05-16 20:00",55.7775854567308,"Approved","OW372"
"2023-05-16 21:00",55.7811948261538,"Approved","OW372"
"2023-05-16 22:00",55.7892101855769,"Approved","OW372"
"2023-05-16 23:00",55.790027555,"Approved","OW372"
"2023-05-17 00:00",55.7870350344231,"Approved","OW372"
"2023-05-17 01:00",55.7900823638462,"Approved","OW372"
"2023-05-17 02:00",55.7831537832692,"Approved","OW372"
"2023-05-17 03:00",55.7804371826923,"Approved","OW372"
"2023-05-17 04:00",55.7806265721154,"Approved","OW372"
"2023-05-17 05:00",55.7827199615385,"Approved","OW372"
"2023-05-17 06:00",55.7875153509615,"Approved","OW372"
"2023-05-17 07:00",55.7961847703846,"Approved","OW372"
"2023-05-17 08:00",55.8076561798077,"Approved","OW372"
"2023-05-17 09:00",55.8175916392308,"Approved","OW372"
"2023-05-17 10:00",55.8248131086538,"Approved","OW372"
"2023-05-17 11:00",55.8275906280769,"Approved","OW372"
"2023-05-17 12:00",55.8288521675,"Approved","OW372"
"2023-05-17 13:00",55.8252157069231,"Approved","OW372"
"2023-05-17 14:00",55.8187772463462,"Approved","OW372"
"2023-05-17 15:00",55.8102088157692,"Approved","OW372"
"2023-05-17 16:00",55.8003483851923,"Approved","OW372"
"2023-05-17 17:00",55.7940979346154,"Approved","OW372"
"2023-05-17 18:00",55.7914074140385,"Approved","OW372"
"2023-05-17 19:00",55.7901328834615,"Approved","OW372"
"2023-05-17 20:00",55.7959482528846,"Approved","OW372"
"2023-05-17 21:00",55.8006835923077,"Approved","OW372"
"2023-05-17 22:00",55.8063289217308,"Approved","OW372"
"2023-05-17 23:00",55.8095722511538,"Approved","OW372"
"2023-05-18 00:00",55.8121756305769,"Approved","OW372"
"2023-05-18 01:00",55.81169699,"Approved","OW372"
"2023-05-18 02:00",55.8095883794231,"Approved","OW372"
"2023-05-18 03:00",55.8094117388462,"Approved","OW372"
"2023-05-18 04:00",55.8102310982692,"Approved","OW372"
"2023-05-18 05:00",55.8138884176923,"Approved","OW372"
"2023-05-18 06:00",55.8188637071154,"Approved","OW372"
"2023-05-18 07:00",55.8290170365385,"Approved","OW372"
"2023-05-18 08:00",55.8403723559615,"Approved","OW372"
"2023-05-18 09:00",55.8521176853846,"Approved","OW372"
"2023-05-18 10:00",55.8634470348077,"Approved","OW372"
"2023-05-18 11:00",55.8718663942308,"Approved","OW372"
"2023-05-18 12:00",55.8761977336538,"Approved","OW372"
"2023-05-18 13:00",55.8767290830769,"Approved","OW372"
"2023-05-18 14:00",55.8703845125,"Approved","OW372"
"2023-05-18 15:00",55.8627519319231,"Approved","OW372"
"2023-05-18 16:00",55.8554413313462,"Approved","OW372"
"2023-05-18 17:00",55.8482666807692,"Approved","OW372"
"2023-05-18 18:00",55.8438180101923,"Approved","OW372"
"2023-05-18 19:00",55.8427952996154,"Approved","OW372"
"2023-05-18 20:00",55.8464125490385,"Approved","OW372"
"2023-05-18 21:00",55.8519158184615,"Approved","OW372"
"2023-05-18 22:00",55.8586811178846,"Approved","OW372"
"2023-05-18 23:00",55.8656584173077,"Approved","OW372"
"2023-05-19 00:00",55.8710417067308,"Approved","OW372"
"2023-05-19 01:00",55.8745030161538,"Approved","OW372"
"2023-05-19 02:00",55.8751703255769,"Approved","OW372"
"2023-05-19 03:00",55.874647615,"Approved","OW372"
"2023-05-19 04:00",55.8761368944231,"Approved","OW372"
"2023-05-19 05:00",55.8795541438461,"Approved","OW372"
"2023-05-19 06:00",55.8837394332692,"Approved","OW372"
"2023-05-19 07:00",55.8926087326923,"Approved","OW372"
"2023-05-19 08:00",55.9039560621154,"Approved","OW372"
"2023-05-19 09:00",55.9173814115385,"Approved","OW372"
"2023-05-19 10:00",55.9279728109615,"Approved","OW372"
"2023-05-19 11:00",55.9389402203846,"Approved","OW372"
"2023-05-19 12:00",55.9453656898077,"Approved","OW372"
"2023-05-19 13:00",55.9468931592308,"Approved","OW372"
"2023-05-19 14:00",55.9422826586538,"Approved","OW372"
"2023-05-19 15:00",55.9367422080769,"Approved","OW372"
"2023-05-19 16:00",55.9276097375,"Approved","OW372"
"2023-05-19 17:00",55.9184012369231,"Approved","OW372"
"2023-05-19 18:00",55.9104987363462,"Approved","OW372"
"2023-05-19 19:00",55.9061121057692,"Approved","OW372"
"2023-05-19 20:00",55.9053654251923,"Approved","OW372"
"2023-05-19 21:00",55.9050987746154,"Approved","OW372"
"2023-05-19 22:00",55.9119181340385,"Approved","OW372"
"2023-05-19 23:00",55.9168954234615,"Approved","OW372"
"2023-05-20 00:00",55.9220948128846,"Approved","OW372"
"2023-05-20 01:00",55.9280561223077,"Approved","OW372"
"2023-05-20 02:00",55.9291014517308,"Approved","OW372"
"2023-05-20 03:00",55.9295647611538,"Approved","OW372"
"2023-05-20 04:00",55.9325061005769,"Approved","OW372"
"2023-05-20 05:00",55.93554133,"Approved","OW372"
"2023-05-20 06:00",55.9378365994231,"Approved","OW372"
"2023-05-20 07:00",55.9405399788462,"Approved","OW372"
"2023-05-20 08:00",55.9499814282692,"Approved","OW372"
"2023-05-20 09:00",55.9610468476923,"Approved","OW372"
"2023-05-20 10:00",55.9743622071154,"Approved","OW372"
"2023-05-20 11:00",55.9853156465385,"Approved","OW372"
"2023-05-20 12:00",55.9930550959615,"Approved","OW372"
"2023-05-20 13:00",55.9969625853846,"Approved","OW372"
"2023-05-20 14:00",55.9957401048077,"Approved","OW372"
"2023-05-20 15:00",55.9903876642308,"Approved","OW372"
"2023-05-20 16:00",55.9829611836538,"Approved","OW372"
"2023-05-20 17:00",55.9727666730769,"Approved","OW372"
"2023-05-20 18:00",55.9671760425,"Approved","OW372"
"2023-05-20 19:00",55.9621433519231,"Approved","OW372"
"2023-05-20 20:00",55.9565026613461,"Approved","OW372"
"2023-05-20 21:00",55.9599779607692,"Approved","OW372"
"2023-05-20 22:00",55.9592292901923,"Approved","OW372"
"2023-05-20 23:00",55.9668486496154,"Approved","OW372"
"2023-05-21 00:00",55.9723899790385,"Approved","OW372"
"2023-05-21 01:00",55.9757293184615,"Approved","OW372"
"2023-05-21 02:00",55.9797546678846,"Approved","OW372"
"2023-05-21 03:00",55.9833199773077,"Approved","OW372"
"2023-05-21 04:00",55.9845673067308,"Approved","OW372"
"2023-05-21 05:00",55.9849246261538,"Approved","OW372"
"2023-05-21 06:00",55.9874899355769,"Approved","OW372"
"2023-05-21 07:00",55.993543255,"Approved","OW372"
"2023-05-21 08:00",56.0008805944231,"Approved","OW372"
"2023-05-21 09:00",56.0075580038462,"Approved","OW372"
"2023-05-21 10:00",56.0233813532692,"Approved","OW372"
"2023-05-21 11:00",56.0368027126923,"Approved","OW372"
"2023-05-21 12:00",56.0466721321154,"Approved","OW372"
"2023-05-21 13:00",56.0535135815385,"Approved","OW372"
"2023-05-21 14:00",56.0555710109615,"Approved","OW372"
"2023-05-21 15:00",56.0521304403846,"Approved","OW372"
"2023-05-21 16:00",56.0459258198077,"Approved","OW372"
"2023-05-21 17:00",56.0393152192308,"Approved","OW372"
"2023-05-21 18:00",56.0275066086538,"Approved","OW372"
"2023-05-21 19:00",56.0199419480769,"Approved","OW372"
"2023-05-21 20:00",56.0132553175,"Approved","OW372"
"2023-05-21 21:00",56.0101766769231,"Approved","OW372"
"2023-05-21 22:00",56.0093920363461,"Approved","OW372"
"2023-05-21 23:00",56.0097954157692,"Approved","OW372"
"2023-05-22 00:00",56.0133608351923,"Approved","OW372"
"2023-05-22 01:00",56.0171542246154,"Approved","OW372"
"2023-05-22 02:00",56.0199356340385,"Approved","OW372"
"2023-05-22 03:00",56.0222549934615,"Approved","OW372"
"2023-05-22 04:00",56.0250343928846,"Approved","OW372"
"2023-05-22 05:00",56.0269158023077,"Approved","OW372"
"2023-05-22 06:00",56.0262732317308,"Approved","OW372"
"2023-05-22 07:00",56.0299766111538,"Approved","OW372"
"2023-05-22 08:00",56.0353999605769,"Approved","OW372"
"2023-05-22 09:00",56.04498936,"Approved","OW372"
"2023-05-22 10:00",56.0561107194231,"Approved","OW372"
"2023-05-22 11:00",56.0682320688462,"Approved","OW372"
"2023-05-22 12:00",56.0789134782692,"Approved","OW372"
"2023-05-22 13:00",56.0886768976923,"Approved","OW372"
"2023-05-22 14:00",56.0930063571154,"Approved","OW372"
"2023-05-22 15:00",56.0933518065385,"Approved","OW372"
"2023-05-22 16:00",56.0927451959615,"Approved","OW372"
"2023-05-22 17:00",56.0876385853846,"Approved","OW372"
"2023-05-22 18:00",56.0822439648077,"Approved","OW372"
"2023-05-22 19:00",56.0753693142308,"Approved","OW372"
"2023-05-22 20:00",56.0688006636538,"Approved","OW372"
"2023-05-22 21:00",56.0644260130769,"Approved","OW372"
"2023-05-22 22:00",56.0638214025,"Approved","OW372"
"2023-05-22 23:00",56.0646587419231,"Approved","OW372"
"2023-05-23 00:00",56.0699721013462,"Approved","OW372"
"2023-05-23 01:00",56.0721415207692,"Approved","OW372"
"2023-05-23 02:00",56.0750410201923,"Approved","OW372"
"2023-05-23 03:00",56.0794104396154,"Approved","OW372"
"2023-05-23 04:00",56.0822377890385,"Approved","OW372"
"2023-05-23 05:00",56.0855891084615,"Approved","OW372"
"2023-05-23 06:00",56.0847864978846,"Approved","OW372"
"2023-05-23 07:00",56.0867419273077,"Approved","OW372"
"2023-05-23 08:00",56.0892053467308,"Approved","OW372"
"2023-05-23 09:00",56.0965787661538,"Approved","OW372"
"2023-05-23 10:00",56.1042561655769,"Approved","OW372"
"2023-05-23 11:00",56.114627585,"Approved","OW372"
"2023-05-23 12:00",56.1248970044231,"Approved","OW372"
"2023-05-23 13:00",56.1351704138462,"Approved","OW372"
"2023-05-23 14:00",56.1418178532692,"Approved","OW372"
"2023-05-23 15:00",56.1464313326923,"Approved","OW372"
"2023-05-23 16:00",56.1460767821154,"Approved","OW372"
"2023-05-23 17:00",56.1428302115385,"Approved","OW372"
"2023-05-23 18:00",56.1373136109615,"Approved","OW372"
"2023-05-23 19:00",56.1306990103846,"Approved","OW372"
"2023-05-23 20:00",56.1249083798077,"Approved","OW372"
"2023-05-23 21:00",56.1178137592308,"Approved","OW372"